Location: Castelnau-Barbarens
(43.5760°N, 0.7244°E)
Time: 05:15:53
(UTC+01:00)

ISS - Visible Passes

Search period start: 01 December 2023 00:00
Search period end: 11 December 2023 00:00
Orbit: 416 x 417 km, 51.6° (Epoch: 30 November)

Date Brightness Start Highest point End Pass type
(mag) Time Alt. Az. Time Alt. Az. Time Alt. Az.
01 Dec -2.7 18:16:28 10° NW 18:19:29 29° NNE 18:21:31 16° ENE visible
01 Dec -1.3 19:53:05 10° WNW 19:54:26 22° WNW 19:54:26 22° WNW visible
02 Dec -3.9 19:04:38 10° WNW 19:08:00 84° NNE 19:08:22 67° ESE visible
03 Dec -3.6 18:16:11 10° NW 18:19:29 53° NNE 18:22:28 12° ESE visible
03 Dec -1.3 19:53:19 10° W 19:55:25 21° WSW 19:55:25 21° WSW visible
04 Dec -2.4 19:04:29 10° WNW 19:07:36 37° SW 19:09:47 17° SSE visible
05 Dec -3.3 18:15:47 10° WNW 18:19:06 64° SW 18:22:25 10° SE visible
06 Dec -0.7 19:04:53 10° W 19:06:50 15° SW 19:08:46 10° SSW visible
07 Dec -1.2 18:15:34 10° W 18:18:21 24° SW 18:21:06 10° SSE visible
